Weather History for KORB - March, 2014

Change the Weather History Date:

Friday, March 21, 2014

  Actual Average Record
Temperature  
Mean Temperature 19 °F -  
Max Temperature 30 °F 35 °F 66 °F (2012)
Min Temperature 6 °F 14 °F -5 °F (2002)
Degree Days  
Heating Degree Days 46    
Moisture  
Dew Point 21 °F    
Average Humidity 80    
Maximum Humidity 93    
Minimum Humidity 51    
Precipitation  
Precipitation 0.44 in - - ()
Sea Level Pressure  
Sea Level Pressure 29.84 in    
Wind  
Wind Speed 5 mph (NE)    
Max Wind Speed 17 mph    
Max Gust Speed 23 mph    
Visibility 6 miles    
Events Rain , Snow    
Averages and records for this station are not official NWS values.
T = Trace of Precipitation, MM = Missing Value Source: NWS Daily Summary

Daily Weather History Graph

Daily Weather History Graph

Search for Another Location

Airport or City:

Trip Planner

Search our weather history database for the weather conditions in past years. The results will help you decide how hot, cold, wet, or windy it might be!

Date:

Astronomy

Mar. 21, 2014 Rise Set
Actual Time 7:12 AM CDT 7:25 PM CDT
Civil Twilight 6:41 AM CDT 7:56 PM CDT
Nautical Twilight 6:04 AM CDT 8:33 PM CDT
Astronomical Twilight 5:27 AM CDT 9:11 PM CDT
Moon 12:04 AM CDT (3/21) 9:44 AM CDT (3/21)
Length of Visible Light 13h 15m
Length of Day
12h 13m
Waning Gibbous, 75% of the Moon is Illuminated
Mar 21
Waning Gibbous
Mar 23
Last Quarter
Mar 30
New
Apr 7
First Quarter
Apr 15
Full

Hourly Weather History & Observations

Time (CDT) Temp. Windchill Dew Point Humidity Pressure Visibility Wind Dir Wind Speed Gust Speed Precip Events Conditions
12:13 AM 30.2 °F 26.7 °F 14.0 °F 51% 29.84 in 10.0 mi ESE 3.5 mph - N/A   Overcast
12:33 AM 30.2 °F - 14.0 °F 51% 29.83 in 10.0 mi Calm Calm - N/A   Overcast
12:53 AM 30.2 °F - 14.0 °F 51% 29.83 in 10.0 mi Calm Calm - N/A   Overcast
1:13 AM 30.2 °F 26.7 °F 14.0 °F 51% 29.83 in 10.0 mi SE 3.5 mph - N/A   Overcast
1:33 AM 30.2 °F 26.7 °F 15.8 °F 55% 29.83 in 10.0 mi ESE 3.5 mph - N/A   Overcast
1:53 AM 30.2 °F - 15.8 °F 55% 29.82 in 10.0 mi Calm Calm - N/A   Overcast
2:13 AM 30.2 °F 26.7 °F 15.8 °F 55% 29.82 in 10.0 mi East 3.5 mph - N/A   Overcast
2:33 AM 30.2 °F 26.7 °F 15.8 °F 55% 29.82 in 10.0 mi East 3.5 mph - N/A   Overcast
2:53 AM 30.2 °F 26.7 °F 15.8 °F 55% 29.81 in 10.0 mi ESE 3.5 mph - N/A   Overcast
3:13 AM 30.2 °F - 15.8 °F 55% 29.81 in 10.0 mi Calm Calm - N/A   Overcast
3:33 AM 30.2 °F 26.7 °F 17.6 °F 60% 29.80 in 10.0 mi SE 3.5 mph - N/A   Overcast
3:53 AM 30.2 °F 26.7 °F 17.6 °F 60% 29.80 in 10.0 mi SSE 3.5 mph - N/A   Overcast
4:13 AM 28.4 °F 24.6 °F 21.2 °F 74% 29.80 in 4.0 mi SE 3.5 mph - N/A Snow Light Snow
4:33 AM 28.4 °F 23.3 °F 23.0 °F 80% 29.79 in 7.0 mi ESE 4.6 mph - N/A Snow Light Snow
4:53 AM 28.4 °F 24.6 °F 24.8 °F 86% 29.78 in 10.0 mi ESE 3.5 mph - N/A   Overcast
5:13 AM 28.4 °F 23.3 °F 24.8 °F 86% 29.77 in 4.0 mi SE 4.6 mph - N/A   Overcast
5:33 AM 28.4 °F 23.3 °F 26.6 °F 93% 29.77 in 2.5 mi SE 4.6 mph - N/A Snow Light Snow
5:53 AM 28.4 °F 22.2 °F 26.6 °F 93% 29.77 in 1.2 mi SE 5.8 mph - N/A Snow Snow
6:13 AM 28.4 °F 23.3 °F 26.6 °F 93% 29.76 in 1.2 mi ESE 4.6 mph - N/A Snow Light Snow
6:33 AM 28.4 °F 23.3 °F 26.6 °F 93% 29.75 in 2.0 mi ESE 4.6 mph - N/A   Overcast
6:53 AM 28.4 °F 23.3 °F 26.6 °F 93% 29.75 in 1.2 mi ESE 4.6 mph - N/A   Overcast
7:13 AM 28.4 °F 22.2 °F 26.6 °F 93% 29.75 in 1.2 mi ESE 5.8 mph - 0.02 in Snow Snow
7:33 AM 28.4 °F 23.3 °F 26.6 °F 93% 29.75 in 0.5 mi East 4.6 mph - 0.02 in   Overcast
7:53 AM 28.4 °F 23.3 °F 26.6 °F 93% 29.75 in 0.2 mi ESE 4.6 mph - 0.05 in Snow Snow
8:13 AM 28.4 °F 24.6 °F 26.6 °F 93% 29.75 in 0.2 mi ESE 3.5 mph - N/A   Overcast
8:33 AM 28.4 °F - 26.6 °F 93% 29.75 in 0.5 mi Calm Calm - 0.01 in Snow Snow
8:53 AM 28.4 °F 24.6 °F 26.6 °F 93% 29.76 in 0.5 mi East 3.5 mph - 0.02 in Snow Snow
9:13 AM 28.4 °F 24.6 °F 26.6 °F 93% 29.75 in 0.5 mi East 3.5 mph - 0.03 in Snow Snow
9:33 AM 28.4 °F 24.6 °F 26.6 °F 93% 29.75 in 0.5 mi East 3.5 mph - 0.04 in Snow Snow
9:53 AM 28.4 °F 22.2 °F 26.6 °F 93% 29.74 in 0.5 mi East 5.8 mph - 0.06 in Snow Snow
10:13 AM 28.4 °F 24.6 °F 26.6 °F 93% 29.74 in 0.2 mi East 3.5 mph - 0.02 in Snow Snow
10:33 AM 28.4 °F 22.2 °F 26.6 °F 93% 29.74 in 0.5 mi East 5.8 mph - 0.04 in Snow Snow
10:53 AM 28.4 °F 23.3 °F 26.6 °F 93% 29.73 in 0.5 mi East 4.6 mph - 0.04 in Snow Snow
11:13 AM 28.4 °F 23.3 °F 26.6 °F 93% 29.73 in 0.5 mi East 4.6 mph - 0.01 in Snow Snow
11:33 AM 28.4 °F 24.6 °F 26.6 °F 93% 29.73 in 0.5 mi East 3.5 mph - 0.04 in Snow Snow
11:53 AM 28.4 °F 24.6 °F 26.6 °F 93% 29.73 in 0.5 mi East 3.5 mph - 0.04 in Snow Snow
12:13 PM 30.2 °F - 26.6 °F 86% 29.74 in 0.5 mi Calm Calm - 0.01 in Snow Snow
12:33 PM 30.2 °F - 26.6 °F 86% 29.74 in 0.8 mi Calm Calm - 0.01 in Snow Light Snow
12:53 PM 30.2 °F - 26.6 °F 86% 29.74 in 1.0 mi Calm Calm - 0.02 in   Overcast
1:13 PM 30.2 °F - 26.6 °F 86% 29.74 in 1.2 mi Calm Calm - 0.02 in   Overcast
1:33 PM 30.2 °F - 26.6 °F 86% 29.75 in 1.2 mi Calm Calm - 0.04 in Snow Light Snow
1:53 PM 30.2 °F - 26.6 °F 86% 29.75 in 1.8 mi Calm Calm - 0.06 in Snow Light Snow
2:13 PM 30.2 °F - 26.6 °F 86% 29.75 in 1.5 mi Calm Calm - 0.03 in Rain Light Freezing Rain
2:33 PM 30.2 °F - 26.6 °F 86% 29.76 in 1.2 mi Calm Calm - 0.05 in Snow Light Snow
2:53 PM 30.2 °F - 26.6 °F 86% 29.77 in 1.5 mi Calm Calm - 0.08 in Rain Light Freezing Rain
3:13 PM 30.2 °F 26.7 °F 26.6 °F 86% 29.78 in 2.0 mi NNW 3.5 mph - 0.02 in   Overcast
3:33 PM 30.2 °F 25.4 °F 26.6 °F 86% 29.79 in 4.0 mi NW 4.6 mph - 0.03 in   Overcast
3:53 PM 30.2 °F 24.3 °F 26.6 °F 86% 29.80 in 7.0 mi NW 5.8 mph - 0.04 in Snow Light Snow
4:13 PM 30.2 °F 23.4 °F 26.6 °F 86% 29.81 in 10.0 mi NW 6.9 mph - 0.01 in   Overcast
4:33 PM 30.2 °F 26.7 °F 26.6 °F 86% 29.82 in 10.0 mi NW 3.5 mph - 0.01 in   Overcast
4:53 PM 30.2 °F 24.3 °F 26.6 °F 86% 29.83 in 10.0 mi NNW 5.8 mph - 0.02 in   Overcast
5:13 PM 30.2 °F 22.6 °F 26.6 °F 86% 29.84 in 5.0 mi NW 8.1 mph - 0.01 in   Overcast
5:33 PM 30.2 °F 21.3 °F 24.8 °F 80% 29.86 in 10.0 mi NW 10.4 mph 16.1 mph 0.01 in   Overcast
5:53 PM 28.4 °F 17.5 °F 24.8 °F 86% 29.88 in 10.0 mi NW 13.8 mph 20.7 mph 0.01 in   Overcast
6:13 PM 28.4 °F 16.2 °F 23.0 °F 80% 29.89 in 10.0 mi NW 17.3 mph 23.0 mph N/A   Overcast
6:33 PM 26.6 °F 13.8 °F 21.2 °F 80% 29.90 in 10.0 mi NW 17.3 mph 23.0 mph N/A   Overcast
6:53 PM 26.6 °F 14.7 °F 21.2 °F 80% 29.92 in 10.0 mi NW 15.0 mph 20.7 mph N/A   Overcast
7:13 PM 26.6 °F 16.8 °F 19.4 °F 74% 29.93 in 10.0 mi NW 10.4 mph 19.6 mph N/A   Overcast
7:33 PM 24.8 °F 12.9 °F 19.4 °F 80% 29.94 in 10.0 mi NW 13.8 mph 21.9 mph N/A   Overcast
7:53 PM 24.8 °F 12.9 °F 17.6 °F 74% 29.96 in 10.0 mi NW 13.8 mph 21.9 mph N/A   Overcast
8:13 PM 23.0 °F 11.1 °F 15.8 °F 74% 29.97 in 10.0 mi NW 12.7 mph 23.0 mph N/A   Overcast
8:33 PM 21.2 °F 9.5 °F 15.8 °F 80% 29.99 in 10.0 mi NW 11.5 mph 17.3 mph N/A   Overcast
8:53 PM 19.4 °F 7.2 °F 12.2 °F 74% 30.01 in 10.0 mi WNW 11.5 mph 19.6 mph N/A   Mostly Cloudy
9:13 PM 17.6 °F 6.4 °F 10.4 °F 73% 30.02 in 10.0 mi WNW 9.2 mph 20.7 mph N/A   Scattered Clouds
9:33 PM 15.8 °F 0.9 °F 8.6 °F 73% 30.03 in 10.0 mi WNW 15.0 mph 20.7 mph N/A   Clear
9:53 PM 14.0 °F -2.0 °F 6.8 °F 73% 30.05 in 10.0 mi NW 16.1 mph 23.0 mph N/A   Clear
10:13 PM 12.2 °F -3.7 °F 5.0 °F 73% 30.06 in 10.0 mi WNW 15.0 mph 20.7 mph N/A   Clear
10:33 PM 10.4 °F -6.0 °F 3.2 °F 73% 30.07 in 10.0 mi WNW 15.0 mph 21.9 mph N/A   Clear
10:53 PM 10.4 °F -4.1 °F 3.2 °F 73% 30.09 in 10.0 mi WNW 11.5 mph - N/A   Clear
11:13 PM 8.6 °F -7.7 °F 1.4 °F 73% 30.10 in 10.0 mi WNW 13.8 mph - N/A   Clear
11:33 PM 8.6 °F -7.0 °F 1.4 °F 73% 30.11 in 10.0 mi NW 12.7 mph - N/A   Clear
11:53 PM 6.8 °F -9.3 °F -0.4 °F 72% 30.12 in 10.0 mi NW 12.7 mph - N/A   Clear